COSMOS 1082

Satellite information

Favourite Embed

Satellite Type and Status

PAYLOADIN ORBIT

Key statistics

Satellite COSMOS 1082 at a glance.

Uptime

16861

Days in orbit

Revolutions

≈ 12.5

Per day

Orbit

LEO

Low Earth Orbit

Inclination

74.0

Latest

Satellite identification and parameters

Extended collection of information and parameters for COSMOS 1082.

Object identification

Identified? True

Debris? False

Object name: COSMOS 1082

International designator: 1979-024B

Object number (NORAD): 11297

Object ID (CCSDS): 11297

Country: COMMONWEALTH OF INDEPENDENT STATES (CIS)

Current information (Y/N): Y

RCS size: MEDIUM

Orbital parameters

Period: 114.745 minutes

Inclination: 74.0334 deg

SMA: 7821.968 km

Apoapsis: 1464.513 km

Periapsis: 1423.153 km

RAAN: 303.8161 deg

Eccentricy: 0.0026438

Argument of periapsis: 81.3302 deg

Mean anomaly: 348.993 deg

Mean motion: 12.54956639 rev/day

Mean motion (dot): -0.0000002 rev/day2

B* drag term: -0.000022692 1/REarth

Two-line elements (TLE)

Creation date: May 12, 2025, 7:41 p.m.

Reference frame: TEME

Reference center: EARTH

Epoch: May 12, 2025, 1:51 p.m. UTC

TLE line 0: 0 COSMOS 1082

TLE line 1: 1 11297U 79024B 25132.57717130 -.00000020 00000-0 -22692-4 0 9995

TLE line 2: 2 11297 74.0334 303.8161 0026438 81.3302 348.9930 12.54956639714519

Live tracking on map

Real-time ground track for satellite COSMOS 1082.

In-orbit conjunctions

There are no conjunctions computed for COSMOS 1082, at the moment. Check back to stay up to date, as we update our databases every day.

Go to all conjunctions

Associated space launch

Military communications satellites

COSMOS 1082 was lifted into orbit during the mission ‘Kosmos-3M | Strela-1M 169-176’, on board a Kosmos-3M space rocket.

The launch took place on March 15, 1979, 2:58 a.m. from 132/2.

For more information about the launch, click the button.

Launch to space Kosmos-3M | Strela-1M 169-176
Kosmos-3M | Strela-1M 169-176

Agency: N/A

Status: Launch Successful

Launch date: March 15, 1979, 2:58 a.m. UTC

Rocket: Kosmos-3M

Launch pad: 132/2

Location: Plesetsk Cosmodrome, Russian Federation

...

Latest news about this satellite

There are no fresh news available about this satellite. Check back as we update our databases every day.


Newsletter sign-up

Weekly statistics, charts and insights to help you stay on top of the space industry.